Weather History for KCKV - March, 2013

Change the Weather History Date:

Monday, March 4, 2013

  Actual Average Record
Temperature  
Mean Temperature 47 °F -  
Max Temperature 59 °F - 81 °F (1976)
Min Temperature 34 °F - 12 °F (1968)
Degree Days  
Heating Degree Days 18    
Month to date heating degree days 112  
Since 1 July heating degree days 3029  
Cooling Degree Days 0    
Month to date cooling degree days 0  
Moisture  
Dew Point 26 °F    
Average Humidity 51    
Maximum Humidity 70    
Minimum Humidity 32    
Precipitation  
Precipitation T in - 2.13 in (1977)
Month to date precipitation 0.09  
Sea Level Pressure  
Sea Level Pressure 29.98 in    
Wind  
Wind Speed 10 mph (SE)    
Max Wind Speed 21 mph    
Max Gust Speed 26 mph    
Visibility 10 miles    
Events Rain    
T = Trace of Precipitation, MM = Missing Value Source: NWS Daily Summary

Daily Weather History Graph

Daily Weather History Graph

Search for Another Location

Airport or City:

Trip Planner

Search our weather history database for the weather conditions in past years. The results will help you decide how hot, cold, wet, or windy it might be!

Date:

Astronomy

Mar. 04, 2013 Rise Set
Actual Time 6:15 AM CST 5:47 PM CST
Civil Twilight 5:50 AM CST 6:13 PM CST
Nautical Twilight 5:20 AM CST 6:43 PM CST
Astronomical Twilight 4:50 AM CST 7:13 PM CST
Moon 12:18 AM CST (3/4) 10:35 AM CST (3/4)
Length of Visible Light 12h 23m
Length of Day
11h 31m
Waning Gibbous, 52% of the Moon is Illuminated
Mar 4
Waning Gibbous
Mar 4
Last Quarter
Mar 11
New
Mar 19
First Quarter
Mar 27
Full

Hourly Weather History & Observations

Time (CST) Temp. Windchill Dew Point Humidity Pressure Visibility Wind Dir Wind Speed Gust Speed Precip Events Conditions
12:52 AM 35.1 °F - 25.0 °F 67% 30.13 in 10.0 mi Calm Calm - N/A   Overcast
1:52 AM 35.1 °F 32.2 °F 23.0 °F 61% 30.13 in 10.0 mi East 3.5 mph - N/A   Overcast
2:52 AM 35.1 °F 31.0 °F 25.0 °F 67% 30.12 in 10.0 mi ESE 4.6 mph - N/A   Overcast
3:52 AM 35.1 °F 30.1 °F 24.1 °F 64% 30.12 in 10.0 mi ESE 5.8 mph - N/A   Overcast
5:52 AM 36.0 °F 31.1 °F 21.9 °F 57% 30.12 in 10.0 mi SE 5.8 mph - N/A   Overcast
6:52 AM 36.0 °F 29.6 °F 21.0 °F 55% 30.12 in 10.0 mi SE 8.1 mph - N/A   Mostly Cloudy
7:52 AM 37.0 °F 29.8 °F 19.9 °F 50% 30.12 in 10.0 mi SE 10.4 mph - N/A   Clear
8:52 AM 39.9 °F 33.4 °F 19.9 °F 45% 30.11 in 10.0 mi SSE 10.4 mph - N/A   Clear
9:52 AM 43.0 °F 36.4 °F 21.9 °F 43% 30.08 in 10.0 mi SSE 12.7 mph 17.3 mph N/A   Clear
10:52 AM 46.0 °F 39.6 °F 21.9 °F 39% 30.05 in 10.0 mi SSE 15.0 mph 20.7 mph N/A   Clear
11:52 AM 50.0 °F - 23.0 °F 35% 30.01 in 10.0 mi South 16.1 mph 20.7 mph N/A   Clear
12:52 PM 54.0 °F - 26.1 °F 34% 29.95 in 10.0 mi SSE 12.7 mph 21.9 mph N/A   Clear
1:52 PM 55.9 °F - 27.0 °F 33% 29.90 in 10.0 mi SSE 13.8 mph - N/A   Clear
2:52 PM 57.9 °F - 28.9 °F 33% 29.87 in 10.0 mi SE 16.1 mph - N/A   Clear
3:52 PM 57.0 °F - 28.9 °F 34% 29.86 in 10.0 mi SSE 13.8 mph 20.7 mph N/A   Clear
4:52 PM 55.9 °F - 28.9 °F 36% 29.87 in 10.0 mi South 9.2 mph - N/A   Partly Cloudy
5:52 PM 53.1 °F - 28.9 °F 40% 29.87 in 10.0 mi SE 11.5 mph - N/A   Partly Cloudy
6:52 PM 53.1 °F - 30.0 °F 41% 29.87 in 10.0 mi SE 8.1 mph - N/A   Mostly Cloudy
7:52 PM 53.1 °F - 30.0 °F 41% 29.87 in 10.0 mi SSE 11.5 mph - N/A   Overcast
8:52 PM 54.0 °F - 28.9 °F 38% 29.87 in 10.0 mi SSE 10.4 mph - N/A   Overcast
9:52 PM 54.0 °F - 28.9 °F 38% 29.86 in 10.0 mi SSE 9.2 mph - N/A   Overcast
10:52 PM 53.1 °F - 30.0 °F 41% 29.84 in 10.0 mi SE 8.1 mph - N/A   Overcast
11:52 PM 51.1 °F - 35.1 °F 54% 29.82 in 10.0 mi SE 8.1 mph - 0.00 in Rain Light Rain